Location: Bletchingley
(51.2333°N, 0.1000°W)
Time: 16:46:24
(UTC+00:00)

Resurs 1-3 - Pass Details

Date: 18 September 2020
Orbit: 631 x 632 km, 97.9° (Epoch: 30 October)

Event Time Altitude Azimuth Distance (km) Brightness Sun altitude
Exits shadow 20:01:13 29° 157° (SSE) 1,172 4.6 -18.0°
Maximum altitude 20:03:27 80° 73° (ENE) 650 3.5 -18.3°
Drops below altitude 10° 20:07:52 10° 348° (NNW) 2,027 6.7 -19.0°
Sets 20:10:04 0° 347° (NNW) 2,940 7.6 -19.3°
